Location: Newark
(21.8258°S, 114.1586°E)
Time: 20:03:07
(UTC+00:00)

Hubble Space Telescope - Pass Details

Date: 20 December 2019
Orbit: 536 x 540 km, 28.5° (Epoch: 28 January)

Event Time Altitude Azimuth Distance (km) Brightness Sun altitude
Rises 13:07:00 0° 260° (W) 2,682 5.3 -24.6°
Reaches altitude 10° 13:09:26 10° 270° (W) 1,788 4.0 -25.1°
Enters shadow 13:11:52 26° 299° (WNW) 1,078 2.4 -25.5°
